N5KR Weather Reports


Display with metric or nautical units.
time (UTC)temp
F
wind
direction
speed
MPH
gust
MPH
rain 1hr
in
rain 24hr
in
rain mn
in
humidity
%
barometer
mb
20260505153005 77 214 9.0 17.0 0.00 0.00 0.00 74 1005.1
20260505152504 78 194 10.0 22.0 0.00 0.00 0.00 74 1005.2
20260505152005 77 201 5.0 25.0 0.00 0.00 0.00 74 1005.4
20260505151504 77 204 5.0 13.0 0.00 0.00 0.00 76 1005.4
20260505151005 76 183 10.0 23.0 0.00 0.00 0.00 76 1005.5
20260505150504 75 212 10.0 20.0 0.00 0.00 0.00 77 1005.4
20260505140505 74 185 8.0 22.0 0.00 0.00 0.00 79 1005.3
20260505125005 72 197 6.0 13.0 0.00 0.00 0.00 82 1004.8
20260505123504 71 164 6.0 14.0 0.00 0.00 0.00 83 1004.5
20260505123004 71 193 6.0 14.0 0.00 0.00 0.00 83 1004.4
20260505122504 71 196 7.0 17.0 0.00 0.00 0.00 83 1004.5
20260505122004 71 202 7.0 16.0 0.00 0.00 0.00 83 1004.4
20260505121504 71 193 7.0 16.0 0.00 0.00 0.00 83 1004.4
20260505121004 71 197 9.0 16.0 0.00 0.00 0.00 83 1004.4
20260505120504 71 203 6.0 15.0 0.00 0.00 0.00 82 1004.4
20260505120005 71 205 7.0 16.0 0.00 0.00 0.00 82 1004.2
20260505115504 71 177 7.0 18.0 0.00 0.00 0.00 82 1004.2
20260505115004 71 215 8.0 20.0 0.00 0.00 0.00 82 1004.1
20260505114504 71 189 5.0 14.0 0.00 0.00 0.00 82 1004.2
20260505114004 71 193 7.0 17.0 0.00 0.00 0.00 82 1004.3
20260505113505 71 192 5.0 12.0 0.00 0.00 0.00 82 1004.2
20260505113004 72 202 6.0 23.0 0.00 0.00 0.00 82 1004.1
20260505112504 71 179 7.0 15.0 0.00 0.00 0.00 82 1004.2
20260505112004 71 233 8.0 17.0 0.00 0.00 0.00 82 1004.1
20260505111504 71 190 6.0 17.0 0.00 0.00 0.00 82 1004.1
20260505111004 71 178 7.0 26.0 0.00 0.00 0.00 82 1004.4
20260505110504 71 239 3.0 17.0 0.00 0.00 0.00 82 1004.3
20260505102004 71 205 8.0 15.0 0.00 0.00 0.00 82 1004.3
20260505101504 71 223 7.0 14.0 0.00 0.00 0.00 82 1004.3
20260505101004 71 187 8.0 21.0 0.00 0.00 0.00 82 1004.2
20260505100504 71 202 6.0 14.0 0.00 0.00 0.00 82 1004.3
20260505095504 71 187 12.0 20.0 0.00 0.00 0.00 82 1004.3
20260505095004 71 200 7.0 16.0 0.00 0.00 0.00 82 1004.5
20260505094504 71 195 8.0 16.0 0.00 0.00 0.00 82 1004.4
20260505093504 71 200 4.0 16.0 0.00 0.00 0.00 82 1004.6
20260505093004 71 203 6.0 15.0 0.00 0.00 0.00 82 1004.6
20260505092504 71 195 7.0 14.0 0.00 0.00 0.00 82 1004.6
20260505092004 71 189 7.0 15.0 0.00 0.00 0.00 82 1004.7
20260505091504 71 204 5.0 12.0 0.00 0.00 0.00 82 1004.7
20260505091004 71 198 7.0 13.0 0.00 0.00 0.00 82 1004.8
20260505090504 71 217 8.0 15.0 0.00 0.00 0.00 82 1004.7
20260505090004 71 208 7.0 17.0 0.00 0.00 0.00 82 1004.7
20260505085503 71 192 7.0 13.0 0.00 0.00 0.00 82 1004.7
20260505085003 71 204 8.0 21.0 0.00 0.00 0.00 82 1004.7
20260505084504 71 190 6.0 20.0 0.00 0.00 0.00 82 1004.7
20260505084003 71 205 7.0 16.0 0.00 0.00 0.00 82 1004.8
20260505083504 71 199 7.0 16.0 0.00 0.00 0.00 81 1004.8
20260505083004 71 177 9.0 17.0 0.00 0.00 0.00 81 1004.8
20260505082504 71 183 9.0 21.0 0.00 0.00 0.00 81 1004.8
20260505081503 71 188 7.0 14.0 0.00 0.00 0.00 81 1004.8
20260505081004 71 181 7.0 14.0 0.00 0.00 0.00 81 1004.9
20260505080504 71 171 7.0 13.0 0.00 0.00 0.00 80 1004.8
20260505075506 72 181 6.0 20.0 0.00 0.00 0.00 80 1005.1
20260505075007 72 186 10.0 16.0 0.00 0.00 0.00 79 1005.1
20260505074507 72 191 8.0 20.0 0.00 0.00 0.00 79 1005.1
20260505074007 72 200 6.0 14.0 0.00 0.00 0.00 79 1005.3
20260505073507 72 184 9.0 17.0 0.00 0.00 0.00 79 1005.3
20260505073006 72 189 7.0 17.0 0.00 0.00 0.00 79 1005.5
20260505072507 72 199 10.0 20.0 0.00 0.00 0.00 78 1005.7
20260505072006 72 195 5.0 16.0 0.00 0.00 0.00 78 1005.7
20260505071507 72 198 5.0 13.0 0.00 0.00 0.00 78 1005.7
20260505071006 72 193 6.0 24.0 0.00 0.00 0.00 77 1005.7
20260505070507 72 197 9.0 16.0 0.00 0.00 0.00 77 1005.9
20260505065506 73 197 6.0 10.0 0.00 0.00 0.00 77 1005.8
20260505064506 73 192 8.0 15.0 0.00 0.00 0.00 76 1006.0
20260505064006 73 192 7.0 17.0 0.00 0.00 0.00 76 1006.1
20260505063506 73 184 10.0 15.0 0.00 0.00 0.00 76 1006.1
20260505062506 73 194 7.0 15.0 0.00 0.00 0.00 75 1006.1
20260505062007 73 186 7.0 16.0 0.00 0.00 0.00 75 1006.1
20260505061507 73 195 6.0 13.0 0.00 0.00 0.00 75 1006.1
20260505061007 73 190 6.0 15.0 0.00 0.00 0.00 75 1006.1
20260505060507 73 189 8.0 18.0 0.00 0.00 0.00 75 1006.0
20260505055506 73 178 7.0 20.0 0.00 0.00 0.00 75 1006.1
20260505054506 73 184 11.0 21.0 0.00 0.00 0.00 74 1006.3
20260505054007 73 179 9.0 15.0 0.00 0.00 0.00 74 1006.3
20260505053506 73 180 10.0 21.0 0.00 0.00 0.00 74 1006.3
20260505053007 73 185 7.0 17.0 0.00 0.00 0.00 73 1006.4
20260505052507 73 174 9.0 15.0 0.00 0.00 0.00 73 1006.5
20260505051507 73 171 8.0 15.0 0.00 0.00 0.00 73 1006.6
20260505051006 73 188 8.0 20.0 0.00 0.00 0.00 73 1006.6
20260505050506 73 183 7.0 15.0 0.00 0.00 0.00 72 1006.5
20260505041506 74 173 11.0 17.0 0.00 0.00 0.00 71 1006.8
20260505041007 74 187 8.0 15.0 0.00 0.00 0.00 70 1006.8
20260505040507 74 172 11.0 18.0 0.00 0.00 0.00 70 1006.8
20260505040006 74 181 9.0 18.0 0.00 0.00 0.00 70 1006.8
20260505035006 74 180 10.0 17.0 0.00 0.00 0.00 70 1006.7
20260505034506 74 183 10.0 16.0 0.00 0.00 0.00 70 1006.6
20260505034006 74 177 11.0 25.0 0.00 0.00 0.00 69 1006.8
20260505033506 74 174 14.0 22.0 0.00 0.00 0.00 69 1006.7
20260505033006 74 175 11.0 17.0 0.00 0.00 0.00 69 1006.8
20260505032006 74 193 9.0 20.0 0.00 0.00 0.00 69 1006.8
20260505031506 74 182 11.0 23.0 0.00 0.00 0.00 69 1006.9
20260505031006 75 167 10.0 20.0 0.00 0.00 0.00 68 1006.8
20260505030506 75 184 11.0 17.0 0.00 0.00 0.00 68 1006.7
20260505030006 75 187 10.0 16.0 0.00 0.00 0.00 68 1006.9
20260505025506 75 189 8.0 16.0 0.00 0.00 0.00 68 1007.0
20260505025007 75 182 9.0 21.0 0.00 0.00 0.00 68 1006.7
20260505024506 75 182 9.0 15.0 0.00 0.00 0.00 68 1006.8
20260505024006 75 182 10.0 21.0 0.00 0.00 0.00 68 1006.9
20260505023506 75 167 7.0 20.0 0.00 0.00 0.00 68 1006.9
20260505022506 75 174 9.0 18.0 0.00 0.00 0.00 67 1006.6
20260505022006 75 184 9.0 17.0 0.00 0.00 0.00 67 1006.7
20260505021506 75 168 10.0 18.0 0.00 0.00 0.00 67 1006.5
20260505020506 75 177 9.0 23.0 0.00 0.00 0.00 66 1006.5
20260505020006 76 185 8.0 16.0 0.00 0.00 0.00 66 1006.5
20260505015506 76 185 12.0 17.0 0.00 0.00 0.00 65 1006.5
20260505015005 76 161 7.0 20.0 0.00 0.00 0.00 65 1006.6
20260505014506 76 187 8.0 24.0 0.00 0.00 0.00 64 1006.5
20260505014006 76 174 9.0 17.0 0.00 0.00 0.00 64 1006.6
20260505013506 76 185 7.0 25.0 0.00 0.00 0.00 64 1006.5
20260505013006 76 186 7.0 13.0 0.00 0.00 0.00 64 1006.6
20260505012506 76 199 9.0 14.0 0.00 0.00 0.00 64 1006.6
20260505011506 77 193 12.0 23.0 0.00 0.00 0.00 63 1006.5
20260505010506 77 193 8.0 14.0 0.00 0.00 0.00 63 1006.5
20260505005506 77 174 8.0 20.0 0.00 0.00 0.00 62 1006.4
20260505005006 77 173 12.0 20.0 0.00 0.00 0.00 62 1006.6
20260505004505 77 181 10.0 23.0 0.00 0.00 0.00 62 1006.5
20260505003006 78 198 7.0 17.0 0.00 0.00 0.00 61 1006.6
20260505002506 78 196 9.0 18.0 0.00 0.00 0.00 61 1006.6
20260505002005 78 188 14.0 24.0 0.00 0.00 0.00 61 1006.7
20260505001506 78 182 12.0 22.0 0.00 0.00 0.00 60 1006.8
20260505001006 78 184 12.0 30.0 0.00 0.00 0.00 60 1006.6
20260505000505 78 191 10.0 20.0 0.00 0.00 0.00 60 1006.6
20260504235006 79 175 13.0 24.0 0.00 0.00 0.00 59 1006.8
20260504234006 79 197 11.0 23.0 0.00 0.00 0.00 59 1006.9
20260504233505 79 197 11.0 23.0 0.00 0.00 0.00 59 1006.9
20260504233006 79 169 12.0 18.0 0.00 0.00 0.00 59 1006.8
20260504232505 79 188 13.0 26.0 0.00 0.00 0.00 58 1006.8
20260504231506 80 195 13.0 21.0 0.00 0.00 0.00 57 1007.0
20260504231005 80 180 12.0 26.0 0.00 0.00 0.00 57 1007.1
20260504230505 80 211 7.0 14.0 0.00 0.00 0.00 57 1007.1
20260504230006 80 192 12.0 22.0 0.00 0.00 0.00 56 1007.1
20260504225505 81 179 11.0 24.0 0.00 0.00 0.00 56 1007.1
20260504225006 81 183 9.0 21.0 0.00 0.00 0.00 56 1007.1
20260504224505 81 196 13.0 21.0 0.00 0.00 0.00 56 1007.2
20260504224005 81 198 12.0 25.0 0.00 0.00 0.00 56 1007.3
20260504223505 81 185 11.0 20.0 0.00 0.00 0.00 55 1007.2
20260504223006 81 176 12.0 26.0 0.00 0.00 0.00 55 1007.1
20260504222505 81 205 10.0 17.0 0.00 0.00 0.00 55 1007.2
20260504222005 81 180 12.0 33.0 0.00 0.00 0.00 55 1007.2
20260504221506 81 192 12.0 31.0 0.00 0.00 0.00 54 1007.3
20260504221005 81 188 10.0 23.0 0.00 0.00 0.00 54 1007.4
20260504220505 81 182 11.0 24.0 0.00 0.00 0.00 55 1007.6
20260504220006 81 180 13.0 22.0 0.00 0.00 0.00 55 1007.6
20260504215006 82 202 10.0 24.0 0.00 0.00 0.00 54 1007.8
20260504214506 82 182 14.0 25.0 0.00 0.00 0.00 54 1007.8
20260504214005 81 175 9.0 22.0 0.00 0.00 0.00 54 1008.0
20260504213505 81 189 10.0 22.0 0.00 0.00 0.00 55 1007.9
20260504213006 81 174 13.0 24.0 0.00 0.00 0.00 54 1007.9
20260504211505 81 189 10.0 18.0 0.00 0.00 0.00 53 1008.3
20260504211005 81 184 12.0 22.0 0.00 0.00 0.00 53 1008.3
20260504210006 81 178 10.0 25.0 0.00 0.00 0.00 54 1008.6
20260504205505 81 175 15.0 25.0 0.00 0.00 0.00 53 1008.6
20260504205005 81 170 9.0 28.0 0.00 0.00 0.00 53 1008.7
20260504204505 81 164 9.0 21.0 0.00 0.00 0.00 53 1008.9
20260504204005 82 170 14.0 28.0 0.00 0.00 0.00 52 1008.9
20260504203505 82 176 12.0 23.0 0.00 0.00 0.00 52 1009.1
20260504203006 82 194 11.0 24.0 0.00 0.00 0.00 52 1009.0
20260504202505 82 170 16.0 30.0 0.00 0.00 0.00 51 1009.2
20260504202006 81 172 14.0 23.0 0.00 0.00 0.00 52 1009.4
20260504201505 82 174 15.0 23.0 0.00 0.00 0.00 51 1009.6
20260504201005 82 188 12.0 28.0 0.00 0.00 0.00 51 1009.5
20260504200505 82 183 14.0 26.0 0.00 0.00 0.00 50 1009.7
20260504200005 82 200 6.0 21.0 0.00 0.00 0.00 52 1009.8
20260504195505 81 201 12.0 21.0 0.00 0.00 0.00 52 1009.9
20260504195005 81 179 10.0 32.0 0.00 0.00 0.00 51 1010.0
20260504194505 82 182 12.0 30.0 0.00 0.00 0.00 50 1010.0
20260504193506 82 195 13.0 23.0 0.00 0.00 0.00 49 1010.0
20260504192505 82 178 12.0 28.0 0.00 0.00 0.00 50 1010.2
20260504192005 81 192 12.0 25.0 0.00 0.00 0.00 50 1010.5
20260504191505 81 186 9.0 17.0 0.00 0.00 0.00 51 1010.5
20260504191005 80 169 16.0 28.0 0.00 0.00 0.00 51 1010.6
20260504190505 81 165 9.0 23.0 0.00 0.00 0.00 50 1010.6
20260504190005 81 182 9.0 21.0 0.00 0.00 0.00 51 1010.6
20260504185505 81 174 5.0 20.0 0.00 0.00 0.00 52 1010.6
20260504185005 80 178 8.0 18.0 0.00 0.00 0.00 51 1010.7
20260504184505 80 169 11.0 18.0 0.00 0.00 0.00 50 1010.7
20260504184005 80 183 10.0 21.0 0.00 0.00 0.00 50 1010.8
20260504183005 80 177 13.0 22.0 0.00 0.00 0.00 50 1010.8
20260504182505 79 160 13.0 24.0 0.00 0.00 0.00 50 1011.0
20260504182005 80 157 11.0 20.0 0.00 0.00 0.00 49 1011.1
20260504181505 80 187 7.0 16.0 0.00 0.00 0.00 49 1011.3
20260504181005 80 198 9.0 17.0 0.00 0.00 0.00 49 1011.2
20260504180505 80 217 7.0 15.0 0.00 0.00 0.00 49 1011.1
20260504180005 79 191 8.0 25.0 0.00 0.00 0.00 49 1011.3
20260504175505 79 184 10.0 22.0 0.00 0.00 0.00 49 1011.2
20260504174505 79 171 12.0 24.0 0.00 0.00 0.00 49 1011.6
20260504174005 79 202 6.0 21.0 0.00 0.00 0.00 49 1011.7
20260504172004 77 181 12.0 26.0 0.00 0.00 0.00 49 1012.3
20260504171505 78 192 10.0 28.0 0.00 0.00 0.00 49 1012.3
20260504171004 78 189 9.0 20.0 0.00 0.00 0.00 49 1012.4
20260504170505 77 206 8.0 17.0 0.00 0.00 0.00 50 1012.5